Weather observations for the past three days for
Louisville Muhammad Ali International Airport
Imperial (Metric)
Date Time (edt) Wind (mph) Vis. (mi.) Weather Sky Cond. Temperature (ºF) Relative Humidity Wind Chill (°F) Heat Index (°F) Pressure Precipitation (in)
Air Dwpt 6 hour altimeter (in) sea level (mb) 1 hr 3 hr 6 hr
Max. Min.
22 08:56 E 8 10.00 Overcast SCT030 BKN060 OVC120 73.9 62.1 67% 30.01 1015.8
22 07:56 E 8 10.00 Overcast BKN028 OVC050 73 62.1 75 71.1 69% 30.01 1015.5
22 06:56 N 6 10.00 Overcast FEW025 OVC032 72 64 76% 30.01 1015.5
22 05:56 N 7 10.00 Overcast FEW045 SCT130 OVC190 71.1 64 79% 29.99 1015.1
22 04:56 N 12 10.00 Overcast SCT045 BKN130 OVC200 72 64 76% 29.99 1015.0
22 03:56 N 7 10.00 Overcast SCT130 BKN180 OVC210 73 64 74% 30 1015.2
22 02:56 N 8 10.00 Overcast SCT180 BKN250 OVC300 73.9 64 71% 29.99 1015.0
22 01:56 N 8 10.00 Overcast FEW045 BKN180 OVC220 75 64.9 82.9 75 71% 77 30 1015.4
22 00:56 N 7 10.00 Overcast FEW045 FEW150 OVC220 77 64 64% 79 30.01 1015.7
21 23:56 N 8 10.00 Overcast FEW046 SCT055 OVC150 79 64 60% 81 30.02 1015.8
21 22:56 NE 7 10.00 Overcast BKN045 BKN060 OVC150 81 64 57% 83 30.03 1016.2
21 21:56 N 7 10.00 Overcast BKN050 BKN060 OVC300 81 64 57% 83 30.01 1015.8
21 20:56 N 9 10.00 Mostly Cloudy BKN055 BKN070 BKN250 BKN300 82 64 55% 84 30 1015.5
21 19:56 N 10 10.00 Mostly Cloudy FEW050 SCT070 BKN250 BKN300 84 64.9 87.1 82.9 53% 86 30 1015.2
21 17:56 NE 12 10.00 Mostly Cloudy FEW050 FEW075 SCT250 BKN300 87.1 66 50% 89 29.99 1014.8
21 16:56 N 12 10.00 Mostly Cloudy FEW045 SCT095 BKN300 87.1 66.9 51% 90 30.01 1015.5
21 15:56 NW 9 10.00 Mostly Cloudy SCT040 BKN095 BKN300 86 66.9 53% 89 30.03 1016.2
21 14:56 N 7 10.00 Overcast SCT040 OVC095 84.9 66 53% 87 30.04 1016.8
21 13:56 E 5 10.00 Mostly Cloudy BKN070 BKN180 84.9 66.9 84.9 73 55% 88 30.06 1017.4
21 12:56 E 7 10.00 Mostly Cloudy FEW065 FEW100 BKN160 82 64.9 56% 84 30.07 1017.6
21 11:56 E 5 10.00 Overcast SCT110 OVC180 80.1 63 56% 81 30.06 1017.5
21 10:56 E 5 10.00 Overcast SCT100 OVC200 78.1 62.1 58% 80 30.07 1017.5
21 09:56 E 9 10.00 Overcast FEW060 BKN095 BKN120 OVC170 75 59 58% 77 30.08 1018.0
21 08:56 NE 6 10.00 Overcast BKN055 OVC075 73.9 59 60% 30.08 1018.0
21 07:56 N 7 10.00 Overcast OVC060 73 59 75 72 62% 30.07 1017.6
21 05:56 N 7 10.00 Overcast BKN060 OVC095 73.9 59 60% 30.05 1017.0
21 04:56 N 6 10.00 Overcast OVC085 73 59 62% 30.05 1017.0
21 03:56 N 7 10.00 Mostly Cloudy FEW060 BKN090 73.9 60.1 62% 30.05 1017.1
21 02:56 N 6 10.00 Partly Cloudy SCT090 73 59 62% 30.06 1017.2
21 01:56 N 6 10.00 Mostly Cloudy SCT055 BKN110 75 60.1 84.9 73.9 60% 77 30.06 1017.5
21 00:56 N 6 10.00 A Few Clouds FEW060 75.9 59 56% 78 30.06 1017.4
20 23:56 NE 8 10.00 A Few Clouds FEW070 77 59 54% 79 30.05 1017.1
20 22:56 NE 7 10.00 Mostly Cloudy FEW065 BKN095 79 60.1 52% 80 30.07 1017.6
20 21:56 N 7 10.00 Mostly Cloudy FEW065 BKN095 BKN300 81 60.1 49% 82 30.06 1017.3
20 20:56 N 8 10.00 Mostly Cloudy FEW065 SCT095 BKN300 82.9 60.1 46% 83 30.04 1016.5
20 18:56 N 5 10.00 Mostly Cloudy FEW070 FEW110 BKN300 87.1 59 39% 86 30.02 1016.2
20 17:56 NE 5 10.00 Mostly Cloudy SCT070 SCT110 BKN300 88 60.1 39% 88 30.04 1016.8
20 16:56 N 6 10.00 Mostly Cloudy BKN070 BKN110 BKN300 88 61 40% 88 30.05 1016.9
20 15:56 N 6 10.00 Mostly Cloudy FEW075 SCT110 BKN300 88 60.1 39% 88 30.05 1017.0
20 14:56 N 5 10.00 Mostly Cloudy BKN075 BKN110 BKN250 84.9 60.1 43% 85 30.07 1017.7
20 13:56 Vrbl 3 10.00 Mostly Cloudy FEW055 BKN070 86 60.1 87.1 70 42% 86 30.08 1018.1
20 12:56 NE 7 10.00 Mostly Cloudy FEW050 BKN065 84.9 60.1 43% 85 30.1 1018.5
20 11:56 E 3 10.00 A Few Clouds FEW080 84 60.1 44% 84 30.1 1018.6
20 10:56 E 3 10.00 A Few Clouds FEW080 FEW250 80.1 59 49% 81 30.1 1018.5
20 09:56 NE 3 10.00 Mostly Cloudy BKN080 77 57.9 52% 79 30.09 1018.6
20 08:56 SE 3 10.00 A Few Clouds FEW065 FEW090 73.9 57 56% 30.09 1018.6
20 07:56 NE 5 10.00 A Few Clouds FEW065 FEW090 70 57.9 72 66.9 66% 30.09 1018.5
20 06:56 N 5 10.00 Partly Cloudy FEW065 SCT090 68 57 68% 30.08 1018.3
20 05:56 N 9 10.00 Overcast BKN070 OVC090 69.1 57 66% 30.09 1018.4
20 04:56 N 8 10.00 Overcast OVC065 70 57.9 66% 30.08 1018.2
20 03:56 N 6 10.00 Mostly Cloudy BKN065 70 59 68% 30.07 1017.7
20 02:56 N 5 10.00 A Few Clouds FEW300 70 57.9 66% 30.07 1017.7
20 01:56 NE 3 10.00 Fair CLR 72 57 82 72 59% 30.07 1017.8
20 00:56 NE 6 10.00 Fair CLR 73 57.9 59% 30.09 1018.3
19 23:56 N 5 10.00 Fair CLR 73.9 57.9 57% 30.09 1018.5
19 22:56 NE 5 10.00 A Few Clouds FEW300 77 57 50% 79 30.08 1018.2
19 21:56 N 6 10.00 Partly Cloudy SCT300 78.1 55.9 47% 79 30.07 1017.8
19 20:56 N 9 10.00 Mostly Cloudy FEW060 BKN300 80.1 55.9 44% 80 30.06 1017.5
19 19:56 N 9 10.00 Mostly Cloudy FEW065 BKN300 82.9 57 86 81 41% 82 30.06 1017.4
19 18:56 NE 9 10.00 Mostly Cloudy FEW065 FEW250 BKN300 82.9 57 41% 82 30.06 1017.3
19 17:56 Vrbl 5 10.00 Mostly Cloudy SCT065 BKN300 82.9 55.9 40% 82 30.06 1017.3
19 16:56 Calm 10.00 Mostly Cloudy SCT065 BKN300 84 55 37% 83 30.07 1017.6
19 15:56 NE 3 10.00 Mostly Cloudy SCT060 BKN300 82.9 55.9 40% 82 30.08 1018.1
19 14:56 Calm 10.00 Mostly Cloudy BKN060 BKN300 82 57 43% 82 30.1 1018.9
19 13:56 Vrbl 3 10.00 Mostly Cloudy BKN060 BKN300 82 57.9 84 66 44% 82 30.12 1019.4
19 12:56 NE 10 10.00 Mostly Cloudy SCT045 BKN170 BKN300 82 60.1 47% 82 30.13 1019.9
19 11:56 NE 9 10.00 Mostly Cloudy FEW055 BKN300 80.1 59 49% 81 30.14 1020.1
19 10:56 E 3 10.00 Mostly Cloudy FEW055 BKN300 75.9 57.9 54% 78 30.15 1020.6
19 09:56 NE 7 10.00 Mostly Cloudy FEW055 BKN300 73.9 57.9 57% 30.15 1020.5
Date Time (edt) Wind (mph) Vis. (mi.) Weather Sky Cond. Air Dwpt Max. Min. Relative Humidity Wind Chill (°F) Heat Index (°F) altimeter (in) sea level (mb) 1 hr 3 hr 6 hr
6 hour
Temperature (ºF) Pressure Precipitation (in)